SCP
0 0 0 0 0 0 0 0 0 0 0 0 0 0 0 0 0 0 0 0 0 0 0 0 0 0 0 0 0 0 0 0 0 0 1 1 1 1 1 1 1 1 1 1
0 0 0 0 0 0 0 0 0 0 0 0 0 0 0 0 0 0 0 0 0 0 0 0 0 0 0 0 0 0 0 0 0 0 0 1 1 1 1 1 1 1 1 1
0 0 0 0 0 0 0 0 0 0 0 0 0 0 0 0 0 0 0 0 0 0 0 0 0 0 0 0 0 0 0 0 0 0 0 0 0 1 1 1 1 1 1 1
0 0 0 0 0 0 0 0 0 0 0 0 0 0 0 0 0 0 0 0 0 0 0 0 0 0 0 0 0 0 0 0 0 0 0 0 0 0 0 0 0 0 0 1
0 0 0 0 0 0 0 0 0 0 0 0 0 0 0 0 0 0 0 0 0 0 0 0 0 0 0 0 0 0 0 0 0 0 0 0 0 0 0 0 0 0 0 0
0 0 0 0 0 0 0 0 0 0 0 0 0 0 0 0 0 0 0 0 0 0 0 0 0 0 0 0 0 0 0 0 0 0 0 0 0 0 0 0 0 0 0 0
0 0 0 0 0 0 0 0 0 0 0 0 0 0 0 0 0 0 0 0 0 0 0 0 0 0 0 0 0 0 0 0 0 0 0 0 0 0 0 0 0 0 0 0
0 0 0 0 0 0 0 0 0 0 0 0 0 0 0 0 0 0 0 0 0 0 0 0 0 0 0 0 0 0 0 0 0 0 0 0 0 0 0 0 0 0 0 0
0 0 0 0 0 0 0 0 0 0 0 0 0 0 0 0 0 0 0 0 0 0 0 0 0 0 0 0 0 0 0 0 0 0 0 0 0 0 0 0 0 0 0 0
0 0 0 0 0 0 0 0 0 0 0 0 0 0 0 0 0 0 0 0 0 0 0 0 0 0 0 0 0 0 0 0 0 0 0 0 0 0 0 0 0 0 0 0
0 0 0 0 0 0 0 0 0 0 0 0 0 0 0 0 0 0 0 0 0 0 0 0 0 0 0 0 0 0 0 0 0 0 0 0 0 0 0 0 0 0 0 0
0 0 0 0 0 0 0 0 0 0 0 0 0 0 0 0 0 0 0 0 0 0 0 0 0 0 0 0 0 0 0 0 0 0 0 0 0 0 0 0 0 0 0 0
0 0 0 0 0 0 0 0 0 0 0 0 0 0 0 0 0 0 0 0 0 0 0 0 0 0 0 0 0 0 0 0 0 0 0 0 0 0 0 0 0 0 0 0
0 0 0 0 0 0 0 0 0 0 0 0 0 0 0 0 0 0 0 0 0 0 0 0 0 0 0 0 0 0 0 0 0 0 0 0 0 0 0 0 0 0 0 0
0 0 0 0 0 0 0 0 0 0 0 0 0 0 0 0 0 0 0 0 0 0 0 0 0 0 0 0 0 0 0 0 0 0 0 0 0 0 0 0 0 0 0 0
0 0 0 0 0 0 0 0 0 0 0 0 0 0 0 0 0 0 0 0 0 0 0 0 0 0 0 0 0 0 0 0 0 0 0 0 0 0 0 0 0 0 0 0
0 0 0 0 0 0 0 0 0 0 0 0 0 0 0 0 0 0 0 0 0 0 0 0 0 0 0 0 0 0 0 0 0 0 0 0 0 0 0 0 0 0 0 0
0 0 0 0 0 0 0 0 0 0 0 0 0 0 0 0 0 0 0 0 0 0 0 0 0 0 0 0 0 0 0 0 0 0 0 0 0 0 0 0 0 0 0 0
0 0 0 0 0 0 0 0 0 0 0 0 0 0 0 0 0 0 0 0 0 0 0 0 0 0 0 0 0 0 0 0 0 0 0 0 0 0 0 0 0 0 0 0
0 0 0 0 0 0 0 0 0 0 0 0 0 0 0 0 0 0 0 0 0 0 0 0 0 0 0 0 0 0 0 0 0 0 0 0 0 0 0 0 0 0 0 0
0 0 0 0 0 0 0 0 0 0 0 0 0 0 0 0 0 0 0 0 0 0 0 0 0 0 0 0 0 0 0 0 0 0 0 0 0 0 0 0 0 0 0 0
0 0 0 0 0 0 0 0 0 0 0 0 0 0 0 0 0 0 0 0 0 0 0 0 0 0 0 0 0 0 0 0 0 0 0 0 0 0 0 0 0 0 0 0
0 0 0 0 0 0 0 0 0 0 0 0 0 0 0 0 0 0 0 0 0 0 0 0 0 0 0 0 0 0 0 0 0 0 0 0 0 0 0 0 0 0 0 0
0 0 0 0 0 0 0 0 0 0 0 0 0 0 0 0 0 0 0 0 0 0 0 0 0 0 0 0 0 0 0 0 0 0 0 0 0 0 0 0 0 0 0 0
0 0 0 0 0 0 0 0 0 0 0 0 0 0 0 0 0 0 0 0 0 0 0 0 0 0 0 0 0 0 0 0 0 0 0 0 0 0 0 0 0 0 0 0
0 0 0 0 0 0 0 0 0 0 0 0 0 0 0 0 0 0 0 0 0 0 0 0 0 0 0 0 0 0 0 0 0 0 0 0 0 0 0 0 0 0 0 0
Wind_Speed
8 8 12 16 17 10 12 14 13 11 7 10 9 9 9 6 6 7 7 6 5 3 2 3 3 3 3 3 3 3 3 2 1 1 2 3 4 5 5 5 6 7 6 6
6 11 13 13 15 11 6 13 11 7 7 6 6 10 9 6 6 4 4 4 2 1 3 3 3 3 3 3 4 4 4 4 3 1 1 2 3 4 5 6 7 8 8 7
6 7 11 12 12 11 8 8 8 9 5 2 3 7 11 5 3 1 2 2 1 2 3 4 4 5 5 6 6 5 5 5 5 4 3 2 2 2 2 3 5 7 9 9
2 3 10 10 11 10 7 2 5 11 7 5 7 5 8 8 6 5 4 4 3 3 5 5 5 5 5 4 4 5 5 5 4 4 3 3 3 3 4 3 4 5 8 9
3 4 9 10 9 7 3 3 5 6 4 2 6 5 4 9 8 8 7 6 6 5 5 5 4 3 4 3 3 4 4 4 4 4 4 3 4 4 4 4 5 5 5 7
4 3 2 2 2 3 5 7 5 1 1 4 8 7 5 8 11 10 8 7 6 5 4 4 4 3 3 3 3 4 4 4 4 4 4 4 4 5 5 6 5 4 4 4
5 4 3 2 6 3 5 7 4 4 4 6 5 6 4 7 12 11 9 8 6 5 4 4 4 4 4 4 4 4 5 5 5 5 5 5 5 4 5 5 5 5 4 4
5 4 2 1 2 5 5 4 2 4 6 4 2 4 1 7 10 10 8 7 5 4 4 4 4 3 3 4 5 5 5 5 5 5 5 5 5 4 3 4 4 5 4 4
5 5 4 2 1 3 5 3 1 2 3 2 5 4 4 5 7 8 7 6 5 4 4 4 3 3 4 4 5 5 5 5 6 6 6 5 5 5 5 6 5 4 4 4
5 6 4 3 2 1 0 1 2 1 1 3 6 7 8 11 9 8 8 7 6 5 4 4 3 3 3 3 3 4 5 5 6 6 6 6 6 6 6 5 6 6 6 6
6 6 5 4 5 6 4 2 3 3 2 2 2 1 2 15 11 9 7 6 5 4 4 4 3 3 3 3 4 4 5 5 5 6 6 6 6 7 6 6 7 7 7 7
2 4 4 3 2 1 3 5 5 3 3 3 2 1 1 9 9 7 6 6 5 5 4 3 3 2 3 3 4 4 5 5 5 5 5 6 7 7 7 8 8 8 8 8
2 5 5 2 2 3 4 5 4 1 1 2 2 1 2 7 7 5 5 4 5 5 4 3 3 3 3 3 3 4 4 5 5 5 6 6 7 7 7 8 8 9 9 9
2 2 2 1 1 6 5 7 6 4 3 3 4 4 4 6 6 5 5 4 4 5 5 3 2 2 3 3 4 4 4 5 5 5 6 6 6 6 7 7 8 8 9 9
1 0 0 1 1 3 4 7 9 8 6 4 2 3 6 7 5 4 3 3 4 5 5 4 2 2 3 3 4 4 4 5 5 5 6 6 6 6 7 7 8 8 9 9
1 1 1 1 2 2 4 7 9 9 10 8 5 4 1 2 4 2 2 2 3 5 6 5 3 2 3 4 3 4 4 4 5 5 6 5 6 6 7 7 8 9 9 9
2 2 1 2 3 1 7 12 13 10 7 9 10 7 3 3 3 2 1 1 3 6 6 5 4 3 4 4 4 4 4 4 5 5 5 5 6 7 7 7 8 8 8 9
3 3 1 1 1 6 4 1 5 10 10 8 6 4 4 2 1 1 1 3 5 6 5 5 4 4 4 4 4 4 4 5 5 5 5 5 6 6 6 7 8 7 7 7
1 2 2 2 3 6 4 4 3 4 5 9 9 5 2 1 0 1 4 5 5 5 5 5 5 4 4 4 4 4 5 5 5 5 5 5 5 6 6 6 6 5 6 6
2 1 2 2 3 3 2 4 3 2 3 3 6 5 3 2 1 2 5 6 6 6 5 5 4 4 4 4 4 5 5 5 5 5 5 5 5 5 5 5 5 4 4 5
4 3 4 4 3 5 3 5 3 2 2 4 5 4 3 2 1 4 6 5 5 5 5 5 4 4 4 4 4 5 5 4 4 4 4 4 4 4 4 4 3 3 4 4
7 5 5 4 5 5 5 4 2 2 4 4 4 3 3 3 3 4 5 6 6 5 5 5 4 4 4 4 5 5 4 4 4 4 4 4 3 3 3 3 3 2 3 3
6 6 3 5 4 2 4 3 4 3 3 3 3 3 2 1 2 3 5 6 6 6 6 5 5 5 4 4 5 5 4 4 4 4 4 3 3 3 3 3 2 1 2 2
4 4 2 2 2 4 4 3 3 3 3 3 3 1 0 1 2 3 5 6 6 6 6 6 6 6 5 5 5 6 6 5 5 5 4 3 3 3 3 2 2 2 2 2
3 4 4 4 3 2 4 4 4 4 4 3 2 0 1 1 2 3 4 6 6 6 6 6 6 6 7 6 6 6 6 6 5 5 4 3 3 3 3 3 3 3 3 3
4 4 5 3 2 3 3 4 5 4 3 2 1 1 1 2 2 3 3 5 6 6 6 6 7 7 7 7 7 6 6 6 6 5 4 3 3 3 3 3 3 5 4 5
Wind_Direction
177 182 189 190 198 200 187 198 202 200 164 187 211 227 238 195 196 227 244 246 236 212 130 76 44 20 5 354 342 325 321 295 246 204 195 197 206 207 206 210 217 227 233 229
166 201 196 192 204 230 236 200 202 145 133 173 217 231 233 219 216 227 254 268 259 78 67 63 48 41 13 11 7 344 338 333 330 317 247 218 219 218 212 210 213 217 225 234
182 186 191 196 198 212 234 209 184 138 129 214 249 245 225 204 207 209 259 282 29 74 95 93 75 59 44 37 21 359 354 345 341 343 340 323 301 275 247 230 217 214 215 219
182 176 184 190 195 200 206 224 145 132 145 200 197 243 197 173 180 191 195 180 143 115 92 81 68 59 58 45 17 350 342 333 331 336 326 310 288 269 256 250 238 226 217 216
139 164 177 186 194 197 155 106 107 137 198 229 188 237 205 154 179 185 176 156 130 117 109 104 89 74 72 57 18 344 334 332 337 335 318 300 288 283 289 290 278 261 241 227
88 62 79 167 148 137 126 104 89 95 212 245 206 207 214 186 182 167 156 140 131 124 121 115 103 83 69 48 17 346 341 347 352 344 328 308 294 297 304 301 296 290 282 262
98 79 41 66 114 130 164 138 140 169 199 235 192 197 251 167 155 152 145 137 131 135 132 104 80 52 43 32 11 353 359 357 354 350 340 329 319 307 295 292 290 292 290 287
130 131 134 108 147 165 190 196 180 185 193 179 168 213 129 105 118 119 119 123 136 144 119 104 87 59 36 26 15 5 360 354 354 350 339 334 331 323 311 311 309 304 298 293
130 112 116 115 89 150 168 213 354 329 292 161 197 173 99 110 119 128 142 157 165 147 125 105 82 62 39 28 19 3 357 358 359 352 343 345 346 343 335 329 323 320 322 324
107 117 134 134 125 10 293 161 143 167 223 241 190 181 184 174 171 170 174 173 157 140 126 107 83 66 48 34 20 11 11 8 6 1 358 1 356 352 345 343 346 349 353 358
112 117 136 162 188 176 167 180 210 222 268 259 228 184 153 167 168 170 167 142 127 124 111 96 78 67 59 41 30 26 19 15 13 6 4 10 6 2 4 8 7 6 9 13
105 120 135 147 106 318 223 201 185 188 231 220 264 326 63 142 143 143 135 130 131 122 111 104 94 75 64 50 37 36 30 22 15 11 18 21 16 16 20 19 18 20 25 26
126 121 127 151 194 215 237 229 214 169 20 244 226 150 85 112 122 136 144 148 144 138 133 126 108 90 70 54 46 45 39 27 20 25 31 29 26 26 27 27 28 31 34 35
3 161 186 171 140 160 193 205 200 168 189 221 224 151 163 149 159 162 157 157 143 140 134 118 98 95 82 65 56 49 41 32 32 40 40 35 31 31 33 35 38 40 43 44
277 206 145 68 64 145 192 199 199 198 208 215 246 166 175 175 168 149 152 149 151 148 139 129 114 89 79 72 64 57 50 40 41 49 48 42 38 39 41 44 46 47 49 52
224 178 117 244 207 223 242 225 211 210 221 236 267 279 261 130 131 155 176 163 168 144 135 130 125 108 87 77 68 65 60 49 52 56 54 50 50 51 50 51 53 55 55 54
184 170 180 226 149 269 252 225 213 206 200 206 224 229 206 173 176 173 153 161 143 128 129 134 133 112 93 84 74 73 72 66 63 64 58 55 57 56 55 60 62 60 60 60
189 185 200 241 167 244 237 78 191 208 216 211 218 209 184 174 132 107 123 128 126 128 134 133 123 112 103 99 93 86 82 81 76 72 66 63 67 68 67 68 68 66 64 64
248 193 213 225 250 267 206 171 167 185 223 210 214 219 216 132 310 192 100 93 108 115 114 115 113 117 112 104 102 95 85 82 79 74 70 68 76 80 79 76 72 70 74 71
244 238 233 225 252 267 99 128 143 179 233 158 173 179 174 156 208 177 129 111 107 106 108 114 119 114 110 108 107 103 96 88 83 79 73 72 79 89 88 86 83 83 85 83
182 206 221 235 249 272 130 136 146 194 147 91 93 106 122 149 141 137 134 127 125 124 123 122 121 118 118 111 106 108 106 98 93 90 85 86 92 99 104 101 100 101 96 91
185 194 198 199 225 243 141 149 184 124 99 88 81 75 79 91 106 131 139 138 137 136 139 139 132 126 119 115 119 120 118 112 109 109 108 106 106 105 103 99 98 108 112 104
193 204 196 198 209 140 152 129 104 104 108 103 95 74 83 132 166 163 159 157 158 158 158 152 146 141 137 136 138 141 145 139 134 129 127 125 118 111 114 107 90 80 81 86
202 206 235 259 224 172 163 140 124 110 108 100 94 88 104 217 193 179 173 169 167 166 163 159 157 159 161 160 156 153 155 157 151 145 144 141 130 119 99 83 64 65 57 64
195 169 205 242 243 176 171 161 141 118 105 97 85 86 263 265 230 199 188 178 173 169 165 164 169 172 168 162 159 155 160 162 157 151 149 143 133 123 101 81 65 81 68 83
215 193 194 219 204 175 152 134 121 123 122 113 105 294 283 256 248 216 200 183 173 170 168 172 178 174 164 162 162 162 165 165 158 157 160 156 146 136 132 127 100 81 109 88